Orbital Elements at Epoch 2459200.5 (2020-Dec-17.0) TDB
Reference: JPL 16 (heliocentric ecliptic J2000)
Element | Value | Uncertainty (1-sigma) | Units |
e | .03324237801120299 | 6.4577e-08 | |
a | 2.630592845021551 | 2.8499e-08 | au |
q | 2.543145683273778 | 1.8587e-07 | au |
i | 11.60725995473111 | 8.6892e-06 | deg |
node | 335.8578242441529 | 2.1356e-05 | deg |
peri | 248.7074856060103 | 0.00012364 | deg |
M | 282.2231699875545 | 0.00012173 | deg |
tp | 2459537.187208073960 (2021-Nov-18.68720807) | 0.00052794 | TDB |
period | 1558.399781621731 4.27 | 2.5324e-05 6.933e-08 | d yr |
n | .2310061925351209 | 3.7539e-09 | deg/d |
Q | 2.718040006769324 | 2.9446e-08 | au |
|
| | Orbit Determination Parameters
Additional Information
|